Wind_Speed
24 24 24 22 19 20 17 15 12 9 5 5 10 15 17 20 21 21 23 23 11 9 17 18 15 13 19 15 7 6 4 4 7 7 5 11 4 6 7 13 7 8 6 10 26
23 25 26 24 23 22 17 16 16 13 12 10 8 11 12 14 19 19 15 20 14 12 16 21 18 15 11 9 6 4 4 9 5 5 5 12 7 14 7 8 4 7 9 18 26
25 27 30 30 29 28 27 20 18 16 14 15 14 10 13 14 14 15 16 14 10 12 12 16 18 15 6 9 5 3 5 5 4 3 11 14 8 6 15 2 7 12 17 27 26
18 21 23 24 25 28 28 26 25 17 16 17 15 16 14 7 3 6 14 19 15 10 13 16 19 6 4 6 6 7 4 3 5 3 4 9 13 6 3 5 9 10 20 28 26
16 17 19 20 20 20 18 18 19 21 22 21 16 8 5 5 4 5 14 14 12 9 14 17 20 5 5 8 7 5 3 5 5 7 6 11 6 6 3 5 10 17 24 24 22
12 13 15 15 15 15 15 15 15 12 19 13 13 10 6 5 4 7 10 9 12 11 14 18 19 2 8 5 4 7 11 7 8 7 4 5 3 4 3 11 18 21 23 20 19
8 11 12 12 13 12 9 11 12 12 13 12 12 11 13 7 6 6 6 8 12 13 15 18 20 6 9 7 12 11 7 4 10 5 3 4 2 1 8 16 20 20 18 17 16
7 10 11 12 11 11 11 9 8 9 9 8 8 7 9 10 7 11 5 13 13 14 12 17 6 6 2 19 6 5 5 4 4 6 2 2 5 2 10 18 18 17 16 16 16
8 11 11 12 14 8 10 15 12 3 6 9 6 3 6 4 5 6 8 9 14 13 11 14 8 6 5 6 5 7 5 3 2 6 2 3 3 1 10 13 15 16 15 14 14
8 11 11 12 18 2 3 7 18 9 1 4 7 2 6 5 10 7 11 12 12 17 12 7 5 4 4 4 6 5 7 3 4 3 4 2 1 1 5 11 13 12 13 14 13
9 10 8 13 23 5 3 4 4 12 23 13 7 5 13 5 19 13 16 14 19 11 3 6 9 3 3 3 1 7 6 6 0 3 2 2 3 4 1 6 10 13 14 14 14
8 9 6 9 16 14 16 16 10 4 3 18 20 18 20 13 11 17 15 9 5 3 1 7 5 2 1 1 4 5 7 3 2 5 2 4 6 4 1 3 7 10 13 13 14
8 6 5 7 11 8 15 13 10 8 3 13 16 19 18 15 11 16 8 7 5 7 6 7 0 3 5 6 5 5 7 4 4 2 4 2 5 2 3 2 1 1 7 7 10
8 7 6 7 6 6 8 13 9 6 5 11 11 11 16 3 8 19 7 3 8 5 5 6 6 6 7 5 3 4 2 3 6 4 3 5 3 3 3 4 7 10 7 6 7
7 8 11 6 5 6 7 8 7 2 5 11 8 8 14 8 4 13 15 10 5 3 3 2 5 8 9 4 2 4 1 4 3 5 3 8 4 3 1 3 2 9 9 8 8
8 11 8 3 2 4 5 4 2 6 2 7 6 7 5 12 6 7 9 14 6 8 8 2 2 5 3 3 3 5 4 6 4 3 3 3 2 4 2 2 3 6 9 9 8
10 10 10 8 5 4 3 2 5 6 3 6 4 6 2 7 7 7 6 8 4 5 4 4 5 3 5 3 3 3 5 3 3 3 4 1 1 6 2 0 0 5 9 8 8
8 9 9 8 6 4 3 5 8 2 3 2 2 2 5 7 5 7 3 5 6 5 4 4 4 6 7 3 1 2 4 5 6 3 3 1 4 3 4 1 2 7 11 12 10
4 6 8 7 5 3 1 6 4 3 3 3 2 5 5 5 3 4 4 2 1 4 4 4 3 3 3 2 2 2 2 3 7 2 2 2 5 6 0 4 7 10 17 15 13
6 5 9 6 4 3 6 4 2 2 2 2 3 2 2 5 4 5 4 2 3 4 1 6 4 1 3 1 4 2 4 3 3 3 2 4 5 4 3 5 5 5 15 12 11
7 3 11 4 2 7 4 2 2 1 1 4 1 2 2 1 3 2 2 2 3 4 4 3 3 3 1 0 3 1 1 5 4 2 4 1 5 5 7 6 7 1 15 11 14
4 3 12 6 4 4 3 5 3 2 4 3 3 3 2 2 2 2 1 0 5 3 2 1 5 3 0 1 1 1 1 2 4 3 2 2 5 2 4 6 4 3 15 11 10
5 4 8 7 3 2 1 2 3 2 2 2 3 4 4 3 2 1 2 1 5 3 2 1 2 3 5 3 2 3 3 3 4 3 5 5 5 0 3 5 5 13 7 6 6
3 3 6 9 7 4 3 1 2 2 3 3 3 3 3 4 4 0 1 2 3 3 4 2 3 4 5 3 3 3 4 4 3 3 4 6 3 3 5 5 8 5 7 5 4
5 2 2 2 5 4 3 2 3 0 1 2 2 3 5 3 1 1 1 3 3 4 3 2 2 2 4 4 3 4 4 8 8 5 7 3 8 6 5 5 6 9 7 6 4
3 1 4 3 2 3 2 2 3 3 3 2 4 3 2 2 3 5 5 4 3 2 3 4 1 1 2 1 3 5 8 9 11 4 9 4 9 9 9 4 4 4 7 8 6
6 3 2 1 1 2 3 4 3 2 1 2 3 4 3 4 4 3 3 6 5 5 3 2 3 2 4 4 6 7 6 11 5 4 6 8 5 5 3 4 4 4 5 7 13
Wind_Direction
19 19 21 20 20 19 24 30 36 40 54 85 137 158 172 179 183 177 186 197 191 192 191 185 187 183 171 166 161 161 84 159 181 165 162 170 134 149 137 136 151 179 160 167 169
29 36 37 37 36 32 27 42 60 54 56 70 109 143 156 173 180 174 188 193 164 182 183 182 181 168 162 158 158 113 119 188 185 172 176 175 158 146 150 142 141 184 179 166 171
55 54 48 49 50 50 48 50 61 64 70 82 89 99 140 155 155 179 182 182 163 155 176 186 175 166 156 150 144 109 156 166 177 181 176 155 138 140 136 201 185 186 172 166 172
56 46 44 44 47 53 54 56 51 60 71 72 85 103 108 91 156 192 167 200 252 151 168 169 169 182 132 132 125 96 65 136 136 142 156 157 140 120 164 153 170 183 172 167 173
52 51 49 41 33 32 33 41 47 52 68 67 67 70 65 58 8 145 160 160 209 170 167 167 166 167 134 126 106 93 133 81 111 113 121 145 130 148 141 156 156 155 163 169 175
43 36 31 33 34 28 34 41 39 38 64 65 48 65 78 75 146 141 176 178 188 186 166 170 170 131 110 90 85 125 108 102 83 82 82 130 118 173 165 152 146 156 165 174 180
29 17 17 15 20 27 21 19 8 29 30 33 47 60 55 45 129 148 188 140 170 167 161 169 174 226 141 95 118 118 87 61 27 27 78 121 45 172 162 159 155 163 174 184 189
357 0 357 352 355 14 21 13 9 8 32 21 20 65 54 61 107 147 166 148 171 166 170 164 181 152 107 118 67 76 59 108 349 22 51 122 237 179 170 169 168 174 185 194 202
345 343 347 347 340 342 58 34 23 6 21 24 14 58 109 93 72 142 181 175 169 181 167 157 142 97 109 94 62 22 135 115 105 41 335 79 227 191 186 188 181 189 196 203 212
354 349 353 358 354 283 32 32 50 58 153 358 3 47 42 8 61 101 158 168 162 144 141 143 94 78 34 58 177 153 108 57 130 349 45 57 231 298 206 209 207 208 213 220 226
355 354 360 2 9 28 281 22 48 50 60 70 47 58 19 58 60 100 141 156 144 147 65 37 70 61 318 319 302 121 106 115 348 6 93 9 279 265 248 234 235 237 239 246 251
350 352 349 4 10 47 71 70 61 50 21 37 44 40 29 21 56 73 126 104 79 94 77 43 79 309 251 30 86 86 118 89 87 13 105 23 277 269 208 249 253 260 262 266 269
328 343 327 319 350 35 33 29 16 17 66 21 26 21 12 29 46 23 100 104 75 56 31 89 51 80 81 44 81 28 118 160 145 103 65 339 308 45 36 77 71 326 285 280 289
324 319 305 296 311 352 15 16 7 2 69 335 351 14 2 38 37 21 36 64 48 91 70 69 331 101 75 63 28 89 332 94 106 87 161 358 234 3 350 60 46 41 51 48 40
334 328 321 279 257 291 318 340 354 351 56 314 327 344 28 72 330 9 27 62 72 41 103 337 343 64 59 326 330 145 80 82 78 83 86 355 78 240 333 71 27 11 35 46 44
3 352 0 353 284 269 293 315 350 43 287 340 335 350 15 27 28 3 45 71 102 64 47 81 8 58 102 19 59 146 84 56 61 85 38 326 76 290 154 150 321 359 31 36 39
22 34 41 48 46 61 88 109 38 89 344 329 332 5 47 5 22 35 31 27 55 88 24 346 18 14 50 56 12 72 62 23 16 9 210 262 44 240 208 37 354 347 10 24 26
40 35 34 34 40 46 56 59 69 252 239 282 328 349 64 359 17 11 71 35 27 64 98 111 356 5 345 81 232 66 136 149 179 185 227 198 233 238 203 118 69 77 58 50 41
3 12 9 14 19 37 44 54 172 207 325 333 20 59 7 9 86 59 47 70 327 18 113 121 38 327 34 19 97 238 53 144 105 57 42 265 278 305 150 122 125 75 41 31 26
326 319 1 7 58 75 72 120 143 203 326 343 89 38 52 337 49 39 18 333 343 28 233 192 85 355 298 336 47 101 144 73 3 120 258 294 276 227 183 153 153 70 23 18 7
341 337 354 1 78 70 101 136 198 34 54 24 48 79 105 82 55 60 10 342 359 347 66 141 96 273 333 0 180 32 19 54 111 84 156 191 265 209 193 176 167 102 2 1 355
356 35 353 341 14 36 100 137 135 33 36 36 61 36 74 106 99 102 89 294 353 330 33 350 124 115 174 340 292 258 233 149 119 217 63 133 270 182 191 185 207 333 351 4 24
360 20 7 2 80 36 125 99 109 105 55 79 52 50 23 25 26 112 142 0 9 43 108 177 10 59 355 1 356 232 192 115 104 87 197 144 260 272 241 213 168 331 345 1 61
20 28 42 62 59 104 122 20 88 96 106 99 130 98 62 43 25 252 16 353 8 91 73 102 99 153 189 200 128 195 194 190 150 142 174 219 244 228 176 153 281 332 338 350 27
39 93 51 -0 26 69 23 159 128 192 78 130 107 138 151 129 51 89 129 337 7 359 26 91 140 185 223 212 202 226 191 190 201 189 189 227 204 220 208 233 301 320 328 340 305
84 121 94 100 149 123 40 288 178 173 151 288 123 150 132 146 178 182 159 193 203 31 53 353 182 192 244 70 207 257 231 212 224 222 262 278 268 221 275 232 312 337 343 346 334
39 64 136 83 14 89 180 169 230 140 346 116 166 126 157 188 175 172 173 142 155 164 145 104 128 64 291 344 320 294 230 203 180 196 192 225 217 172 173 261 285 345 39 20 341
Height
1494 1489 1485 1481 1477 1474 1469 1464 1462 1461 1460 1458 1458 1460 1465 1471 1475 1479 1483 1487 1490 1494 1497 1500 1505 1507 1510 1513 1515 1517 1526 1536 1534 1536 1532 1534 1535 1538 1539 1540 1543 1546 1546 1549 1554
1496 1491 1488 1484 1480 1476 1472 1467 1464 1464 1462 1462 1463 1465 1469 1473 1477 1480 1483 1487 1491 1494 1497 1499 1503 1507 1510 1512 1515 1516 1525 1529 1527 1527 1529 1532 1533 1535 1539 1541 1542 1545 1546 1549 1554
1499 1495 1492 1489 1484 1480 1477 1473 1469 1468 1467 1466 1467 1469 1472 1476 1480 1481 1483 1486 1489 1493 1497 1500 1503 1507 1507 1510 1514 1517 1523 1524 1525 1526 1528 1529 1532 1534 1536 1541 1538 1540 1545 1549 1553
1501 1499 1496 1493 1490 1487 1483 1479 1476 1473 1472 1472 1472 1473 1475 1478 1482 1481 1483 1486 1490 1491 1496 1499 1503 1506 1507 1509 1511 1519 1523 1524 1525 1526 1529 1530 1532 1534 1535 1535 1536 1539 1543 1548 1553
1504 1502 1500 1497 1494 1491 1488 1486 1483 1480 1478 1477 1477 1478 1479 1480 1481 1480 1483 1486 1489 1492 1496 1499 1503 1505 1507 1508 1511 1518 1524 1525 1526 1527 1531 1532 1532 1533 1535 1535 1536 1539 1544 1550 1554
1507 1505 1502 1500 1497 1494 1492 1489 1487 1485 1483 1481 1480 1479 1480 1483 1483 1483 1485 1485 1490 1493 1497 1499 1503 1505 1506 1509 1511 1518 1522 1526 1529 1529 1532 1533 1534 1534 1536 1536 1536 1540 1546 1550 1554
1508 1507 1504 1502 1500 1497 1495 1492 1489 1487 1485 1483 1483 1481 1481 1485 1486 1486 1486 1488 1490 1494 1497 1500 1503 1506 1506 1509 1516 1519 1526 1528 1531 1531 1534 1534 1537 1536 1535 1537 1538 1542 1546 1551 1553
1510 1507 1506 1503 1501 1499 1496 1494 1491 1489 1487 1486 1485 1485 1485 1486 1487 1489 1488 1490 1493 1496 1498 1500 1503 1506 1507 1510 1517 1522 1528 1534 1535 1532 1535 1536 1543 1537 1537 1537 1539 1542 1546 1550 1552
1510 1508 1506 1503 1500 1499 1497 1495 1492 1490 1489 1488 1487 1488 1490 1489 1488 1487 1488 1490 1493 1496 1498 1501 1503 1507 1509 1513 1526 1532 1536 1537 1536 1535 1536 1537 1539 1538 1539 1539 1540 1542 1545 1548 1551
1510 1508 1506 1504 1500 1497 1496 1496 1494 1490 1490 1490 1490 1491 1490 1491 1489 1489 1490 1491 1494 1497 1500 1501 1503 1510 1516 1520 1528 1531 1539 1540 1538 1539 1537 1538 1539 1539 1539 1540 1541 1542 1544 1546 1548
1510 1508 1507 1504 1500 1495 1496 1496 1498 1497 1492 1496 1496 1494 1492 1492 1490 1489 1492 1494 1496 1499 1504 1503 1513 1527 1528 1528 1523 1526 1532 1539 1542 1541 1539 1545 1544 1540 1539 1540 1541 1542 1542 1543 1544
1510 1508 1507 1505 1504 1501 1499 1497 1499 1502 1499 1497 1496 1496 1493 1490 1490 1491 1494 1496 1498 1504 1504 1511 1525 1526 1526 1526 1526 1526 1531 1540 1542 1542 1539 1547 1539 1538 1539 1540 1541 1541 1541 1541 1542
1508 1508 1507 1506 1505 1504 1501 1501 1500 1500 1500 1500 1500 1498 1497 1496 1499 1498 1499 1502 1505 1509 1510 1518 1527 1524 1525 1532 1529 1539 1533 1540 1537 1544 1551 1549 1539 1538 1540 1540 1540 1540 1541 1540 1539
1507 1506 1506 1505 1507 1504 1503 1503 1501 1501 1515 1513 1504 1504 1503 1500 1502 1502 1501 1502 1506 1515 1518 1529 1528 1525 1530 1536 1538 1535 1541 1539 1542 1548 1553 1559 1548 1540 1544 1541 1541 1540 1539 1539 1539
1505 1505 1504 1502 1503 1504 1505 1503 1503 1503 1545 1517 1510 1508 1505 1504 1509 1507 1504 1502 1512 1519 1519 1536 1533 1529 1536 1543 1540 1541 1542 1543 1548 1561 1562 1558 1559 1543 1545 1544 1542 1541 1541 1540 1539
1506 1504 1502 1501 1501 1503 1503 1502 1504 1521 1545 1524 1515 1513 1509 1508 1510 1509 1508 1508 1515 1520 1525 1538 1534 1534 1540 1543 1540 1543 1544 1548 1558 1566 1571 1579 1571 1553 1544 1544 1544 1543 1541 1540 1539
1507 1505 1503 1501 1502 1502 1501 1503 1521 1541 1530 1527 1523 1519 1519 1519 1516 1517 1522 1524 1527 1531 1544 1540 1539 1541 1541 1542 1543 1545 1548 1577 1567 1578 1562 1597 1579 1547 1543 1544 1545 1544 1542 1540 1539
1508 1507 1505 1504 1503 1502 1502 1505 1536 1532 1530 1525 1524 1521 1525 1524 1524 1523 1524 1534 1530 1533 1555 1550 1556 1548 1546 1548 1548 1551 1552 1565 1561 1575 1562 1584 1561 1544 1543 1543 1544 1544 1542 1541 1539
1509 1508 1507 1505 1503 1503 1504 1531 1532 1530 1528 1526 1524 1527 1526 1525 1527 1527 1533 1534 1533 1531 1534 1545 1551 1550 1549 1548 1551 1547 1556 1555 1576 1597 1574 1568 1553 1545 1541 1542 1544 1543 1541 1540 1539
1510 1508 1508 1505 1503 1503 1508 1528 1529 1528 1527 1526 1528 1527 1527 1530 1528 1530 1534 1535 1533 1532 1531 1539 1554 1553 1550 1549 1549 1549 1553 1554 1566 1566 1563 1564 1564 1545 1544 1543 1543 1542 1541 1540 1539
1512 1509 1510 1507 1505 1504 1525 1530 1528 1527 1526 1527 1527 1528 1530 1530 1532 1535 1537 1536 1535 1533 1531 1536 1542 1556 1552 1551 1552 1554 1554 1558 1561 1566 1561 1564 1549 1543 1542 1540 1541 1541 1540 1538 1537
1511 1511 1511 1509 1510 1516 1524 1522 1525 1527 1527 1527 1527 1529 1529 1531 1533 1535 1535 1536 1535 1535 1535 1536 1545 1561 1551 1552 1551 1552 1550 1552 1555 1561 1584 1578 1552 1537 1537 1538 1539 1539 1537 1536 1535
1512 1513 1512 1511 1524 1526 1524 1523 1524 1525 1527 1528 1530 1530 1531 1534 1532 1534 1535 1536 1535 1535 1536 1537 1545 1566 1553 1554 1553 1551 1550 1554 1559 1563 1567 1561 1547 1536 1536 1537 1537 1537 1536 1535 1534
1512 1516 1513 1513 1520 1524 1525 1527 1527 1525 1526 1527 1529 1530 1533 1535 1537 1537 1538 1537 1535 1535 1535 1536 1545 1546 1552 1543 1546 1550 1549 1551 1551 1560 1556 1557 1548 1534 1535 1535 1536 1535 1534 1533 1531
1513 1517 1519 1523 1523 1525 1527 1526 1527 1528 1527 1526 1528 1527 1528 1532 1536 1538 1541 1538 1537 1537 1536 1536 1541 1543 1542 1543 1544 1541 1542 1548 1551 1543 1538 1534 1539 1531 1532 1532 1530 1530 1530 1530 1530
1514 1518 1519 1522 1521 1521 1526 1529 1526 1525 1526 1529 1527 1530 1530 1532 1530 1532 1535 1538 1537 1538 1539 1540 1544 1543 1540 1541 1543 1541 1537 1540 1539 1538 1539 1536 1532 1528 1527 1527 1528 1529 1528 1528 1528
1517 1517 1516 1521 1523 1523 1523 1525 1527 1528 1529 1527 1528 1530 1531 1531 1530 1530 1531 1530 1531 1534 1539 1541 1544 1547 1542 1545 1542 1535 1527 1528 1528 1530 1528 1530 1524 1524 1525 1526 1526 1527 1527 1528 1528